GW3250 Weather Reports


time (UTC)temp
C
wind
direction
speed
KPH
gust
KPH
rain 1hr
cm
rain 24hr
cm
rain mn
cm
humidity
%
barometer
mb
20260903060503 17 198 0.0 0.0 0.13 0.36 0.36 99 1014.1
20260903060004 17 204 0.0 0.0 0.13 0.36 0.36 99 1014.3
20260903055501 17 189 0.0 1.6 0.00 0.33 0.33 99 1014.1
20260903055000 17 200 0.0 1.6 0.00 0.33 0.33 99 1014.3
20260903054455 17 200 0.0 0.0 0.00 0.33 0.33 99 1014.7
20260903053951 17 201 0.0 0.0 0.00 0.33 0.33 99 1014.9
20260903053450 17 198 0.0 1.6 0.00 0.33 0.33 99 1015.0
20260903052948 17 202 0.0 0.0 0.18 0.33 0.33 99 1015.3
20260903052443 17 196 1.6 1.6 0.18 0.33 0.33 99 1015.7
20260903051939 17 196 1.6 1.6 0.00 0.30 0.30 99 1016.0
20260903051433 17 195 0.0 0.0 0.13 0.30 0.30 99 1016.0
20260903050929 17 188 0.0 0.0 0.13 0.30 0.30 99 1015.8
20260903050428 17 188 0.0 0.0 0.18 0.28 0.28 99 1016.2
20260903045928 17 188 0.0 0.0 0.30 0.28 0.28 99 1015.8
20260903045423 17 188 1.6 1.6 0.30 0.25 0.25 99 1015.8
20260903044920 17 132 0.0 1.6 0.18 0.23 0.23 99 1015.7
20260903044415 17 106 0.0 0.0 0.13 0.20 0.20 99 1015.4
20260903043912 17 106 0.0 0.0 0.13 0.20 0.20 99 1015.5
20260903043407 17 105 1.6 1.6 0.18 0.18 0.18 99 1015.6
20260903042905 17 105 0.0 1.6 0.48 0.18 0.18 99 1015.5
20260903042401 17 119 0.0 0.0 0.48 0.15 0.15 99 1016.0
20260903041856 17 117 1.6 1.6 0.30 0.10 0.10 99 1015.6
20260903041353 17 80 0.0 0.0 0.30 0.08 0.08 99 1015.6
20260903040848 17 174 1.6 1.6 0.48 0.05 0.05 99 1016.6
20260903040347 17 138 1.6 1.6 0.43 0.03 0.03 99 1016.3
20260903035844 17 167 0.0 0.0 0.61 1.32 1.32 99 1017.0
20260903035338 17 169 0.0 0.0 0.61 1.30 1.30 99 1017.3
20260903034834 17 165 0.0 0.0 0.97 1.24 1.24 99 1017.5
20260903034329 17 165 0.0 0.0 3.66 1.19 1.19 99 1017.6
20260903033824 17 165 0.0 0.0 4.67 1.09 1.09 99 1018.0
20260903033319 17 184 0.0 1.6 2.95 0.69 0.69 99 1018.2
20260903032818 17 191 1.6 3.2 0.97 0.30 0.30 99 1018.4
20260903032315 17 121 1.6 1.6 0.30 0.20 0.20 99 1017.1
20260903031810 17 125 0.0 0.0 0.00 0.15 0.15 99 1017.1
20260903031309 17 230 0.0 0.0 0.00 0.15 0.15 99 1017.0
20260903030805 17 202 1.6 1.6 0.00 0.15 0.15 99 1016.9
20260903030301 17 177 0.0 0.0 0.00 0.15 0.15 99 1016.7
20260903025756 17 135 1.6 1.6 0.00 0.15 0.15 99 1016.8
20260903025252 17 201 0.0 0.0 0.00 0.15 0.15 99 1016.6
20260903024746 17 217 0.0 0.0 0.00 0.15 0.15 99 1016.4
20260903024245 17 304 3.2 3.2 0.00 0.15 0.15 99 1016.5
20260903023741 17 194 0.0 0.0 0.00 0.15 0.15 99 1016.4
20260903023237 17 213 0.0 0.0 0.00 0.15 0.15 99 1016.8
20260903022737 17 194 3.2 3.2 0.00 0.15 0.15 99 1016.9
20260903022236 17 184 0.0 3.2 0.00 0.15 0.15 99 1016.8
20260903021730 17 183 0.0 0.0 0.00 0.15 0.15 99 1016.8
20260903021226 17 183 0.0 1.6 0.00 0.15 0.15 99 1016.9
20260903020725 17 183 0.0 0.0 0.00 0.15 0.15 99 1016.8
20260903020220 17 182 0.0 0.0 0.00 0.15 0.15 99 1016.8
20260903015715 17 143 1.6 1.6 0.00 0.15 0.15 99 1017.1
20260903015211 17 189 1.6 1.6 0.00 0.15 0.15 99 1017.4
20260903014706 17 151 0.0 1.6 0.00 0.15 0.15 99 1017.3
20260903014200 17 200 3.2 3.2 0.00 0.15 0.15 99 1017.3
20260903013655 17 180 0.0 0.0 0.00 0.15 0.15 99 1017.3
20260903013154 17 188 1.6 1.6 0.00 0.15 0.15 99 1017.2
20260903012653 17 163 0.0 0.0 0.00 0.15 0.15 99 1017.0
20260903012153 17 180 0.0 0.0 0.00 0.15 0.15 99 1017.0
20260903011652 17 187 1.6 1.6 0.00 0.15 0.15 99 1017.0
20260903011146 17 201 1.6 1.6 0.00 0.15 0.15 99 1016.5
20260903010642 17 198 3.2 3.2 0.00 0.15 0.15 99 1016.2
20260903010140 17 208 1.6 1.6 0.00 0.15 0.15 99 1016.8
20260903005635 17 208 0.0 0.0 0.00 0.15 0.15 99 1016.9
20260903005130 17 209 0.0 0.0 0.00 0.15 0.15 99 1016.9
20260903004625 17 44 0.0 0.0 0.13 0.15 0.15 99 1016.9
20260903004120 17 45 0.0 1.6 0.13 0.15 0.15 99 1017.3
20260903003616 17 33 0.0 0.0 0.00 0.13 0.13 99 1017.2
20260903003110 17 32 1.6 1.6 0.00 0.13 0.13 99 1017.2
20260903002600 17 149 1.6 1.6 0.00 0.13 0.13 99 1017.0
20260903002054 17 148 0.0 0.0 0.00 0.13 0.13 99 1017.0
20260903001555 17 148 0.0 1.6 0.00 0.13 0.13 99 1017.2
20260903001049 17 155 1.6 1.6 0.00 0.13 0.13 99 1016.9
20260903000545 17 118 0.0 1.6 0.00 0.13 0.13 99 1016.9
20260903000043 17 118 0.0 0.0 0.00 0.13 0.13 99 1016.8
20260902235537 17 118 0.0 0.0 0.00 0.13 0.13 99 1016.8
20260902235032 17 118 0.0 1.6 0.00 0.13 0.13 99 1016.9
20260902234527 17 118 0.0 0.0 0.00 0.13 0.13 99 1016.8
20260902234025 17 118 0.0 1.6 0.00 0.13 0.13 99 1016.9
20260902233520 17 118 0.0 0.0 0.00 0.13 0.13 99 1016.7
20260902233015 17 116 1.6 1.6 0.00 0.13 0.13 99 1016.8
20260902232514 17 158 0.0 0.0 0.00 0.13 0.13 99 1016.7
20260902232009 17 163 1.6 1.6 0.00 0.13 0.13 99 1016.7
20260902231503 17 140 1.6 1.6 0.00 0.13 0.13 99 1016.9
20260902230958 17 158 0.0 0.0 0.00 0.13 0.13 99 1017.1
20260902230451 17 174 0.0 1.6 0.00 0.13 0.13 99 1017.1
20260902225945 17 174 3.2 3.2 0.00 0.13 0.13 99 1016.8
20260902225440 17 184 1.6 3.2 0.00 0.13 0.13 99 1017.0
20260902224940 17 235 3.2 4.8 0.00 0.13 0.13 99 1017.3
20260902224439 17 197 0.0 0.0 0.00 0.13 0.13 99 1017.2
20260902223936 17 158 1.6 1.6 0.00 0.13 0.13 99 1017.2
20260902223431 17 109 1.6 1.6 0.00 0.13 0.13 99 1017.3
20260902222930 17 141 0.0 1.6 0.00 0.13 0.13 99 1017.1
20260902222429 17 107 0.0 0.0 0.00 0.13 0.13 99 1017.1
20260902221929 17 162 1.6 1.6 0.00 0.13 0.13 99 1017.3
20260902221427 17 137 0.0 0.0 0.00 0.13 0.13 99 1017.1
20260902220924 17 241 0.0 0.0 0.00 0.13 0.13 99 1017.2
20260902220423 17 139 1.6 1.6 0.00 0.13 0.13 99 1017.0
20260902215919 17 60 0.0 0.0 0.00 0.13 0.13 99 1017.1
20260902215414 17 62 0.0 0.0 0.00 0.13 0.13 99 1017.3
20260902214910 17 62 0.0 1.6 0.00 0.13 0.13 99 1017.2
20260902214409 17 16 0.0 1.6 0.00 0.13 0.13 99 1017.3
20260902213903 17 98 0.0 0.0 0.00 0.13 0.13 99 1017.5
20260902213400 17 95 0.0 0.0 0.00 0.13 0.13 99 1017.1
20260902212858 17 40 0.0 0.0 0.00 0.13 0.13 99 1017.2
20260902212354 17 49 0.0 1.6 0.00 0.13 0.13 99 1017.1
20260902211851 17 92 0.0 0.0 0.00 0.13 0.13 99 1017.2
20260902211346 17 192 1.6 1.6 0.00 0.13 0.13 99 1017.0
20260902210841 17 232 0.0 1.6 0.00 0.13 0.13 99 1017.2
20260902210341 17 92 0.0 1.6 0.00 0.13 0.13 99 1017.3
20260902205839 17 100 0.0 1.6 0.00 0.13 0.13 99 1017.3
20260902205334 17 105 0.0 1.6 0.00 0.13 0.13 99 1017.3
20260902204830 17 105 1.6 1.6 0.00 0.13 0.13 99 1017.5
20260902204324 17 105 0.0 0.0 0.00 0.13 0.13 99 1017.5
20260902203820 17 95 0.0 1.6 0.00 0.13 0.13 99 1017.4
20260902203315 17 98 0.0 0.0 0.00 0.13 0.13 99 1017.7
20260902202814 17 102 0.0 0.0 0.00 0.13 0.13 99 1017.5
20260902202310 17 192 0.0 1.6 0.00 0.13 0.13 99 1017.5
20260902201807 17 199 0.0 0.0 0.00 0.13 0.13 99 1017.5
20260902201301 17 100 1.6 1.6 0.00 0.13 0.13 99 1017.5
20260902200756 17 186 0.0 0.0 0.00 0.13 0.13 99 1017.4
20260902200251 17 211 0.0 0.0 0.00 0.13 0.13 99 1017.5
20260902195746 17 76 0.0 0.0 0.00 0.13 0.13 99 1017.7
20260902195246 17 73 1.6 3.2 0.00 0.13 0.13 99 1017.5
20260902194740 17 79 0.0 0.0 0.00 0.13 0.13 99 1017.4
20260902194235 17 76 1.6 3.2 0.00 0.13 0.13 99 1017.3
20260902193731 17 90 1.6 1.6 0.00 0.13 0.13 99 1017.3
20260902193226 17 81 0.0 1.6 0.00 0.13 0.13 99 1017.4
20260902192724 17 68 0.0 1.6 0.00 0.13 0.13 99 1017.2
20260902192219 17 57 1.6 3.2 0.00 0.13 0.13 99 1017.4
20260902191718 17 88 0.0 1.6 0.00 0.13 0.13 99 1017.5
20260902191213 17 153 0.0 1.6 0.00 0.13 0.13 99 1017.6
20260902190708 17 121 1.6 3.2 0.00 0.13 0.13 99 1017.7
20260902190203 17 111 0.0 0.0 0.00 0.13 0.13 99 1017.8
20260902185659 17 107 0.0 1.6 0.00 0.13 0.13 99 1018.0
20260902185154 17 73 0.0 1.6 0.00 0.13 0.13 99 1018.1
20260902184649 17 90 1.6 1.6 0.00 0.13 0.13 99 1018.2
20260902184145 17 162 0.0 0.0 0.00 0.13 0.13 99 1018.2
20260902183641 17 168 1.6 1.6 0.00 0.13 0.13 99 1018.2
20260902183137 17 163 0.0 1.6 0.00 0.13 0.13 99 1018.5
20260902182633 17 140 0.0 1.6 0.00 0.13 0.13 99 1018.4
20260902182130 17 124 0.0 0.0 0.00 0.13 0.13 99 1018.4
20260902181625 17 124 1.6 1.6 0.00 0.13 0.13 99 1018.9
20260902181124 17 124 0.0 0.0 0.00 0.13 0.13 99 1018.7
20260902180619 17 127 0.0 0.0 0.00 0.13 0.13 99 1018.9
20260902180116 17 132 0.0 1.6 0.00 0.13 0.13 99 1018.7
20260902175615 17 83 0.0 1.6 0.00 0.13 0.13 99 1018.9
20260902175110 17 74 0.0 1.6 0.00 0.13 0.13 99 1019.0
20260902174606 17 88 0.0 0.0 0.18 0.13 0.13 99 1018.6
20260902174102 17 90 0.0 0.0 0.18 0.13 0.13 99 1018.7
20260902173556 17 117 1.6 1.6 0.00 0.10 0.10 99 1018.5
20260902173052 17 122 0.0 1.6 0.00 0.10 0.10 99 1018.6
20260902172550 17 122 0.0 1.6 0.13 0.10 0.10 99 1018.5
20260902172045 17 122 0.0 0.0 0.13 0.10 0.10 99 1018.9
20260902171542 17 122 0.0 0.0 0.00 0.08 0.08 99 1019.2
20260902171037 17 121 1.6 1.6 0.00 0.08 0.08 99 1018.7
20260902170531 17 128 0.0 0.0 0.18 0.08 0.08 99 1018.7
20260902170028 17 135 0.0 0.0 0.18 0.08 0.08 99 1018.5
20260902165522 17 135 0.0 1.6 0.00 0.05 0.05 99 1018.9
20260902165021 17 136 1.6 1.6 0.00 0.05 0.05 99 1018.9
20260902164517 17 154 1.6 1.6 0.00 0.05 0.05 99 1018.7
20260902164015 17 154 0.0 0.0 0.00 0.05 0.05 99 1018.5
20260902163511 17 155 0.0 0.0 0.00 0.05 0.05 99 1018.7
20260902163010 17 154 0.0 0.0 0.00 0.05 0.05 99 1018.6
20260902162504 17 154 0.0 1.6 0.00 0.05 0.05 99 1018.6
20260902161959 17 188 0.0 0.0 0.00 0.05 0.05 99 1018.6
20260902161454 17 117 0.0 0.0 0.00 0.05 0.05 99 1018.6
20260902160950 17 147 3.2 4.8 0.00 0.05 0.05 99 1018.7
20260902160445 17 184 0.0 1.6 0.00 0.05 0.05 99 1018.7
20260902155943 17 165 0.0 1.6 0.00 0.05 0.05 99 1018.7
20260902155439 17 193 0.0 0.0 0.00 0.05 0.05 99 1018.7
20260902154932 17 187 1.6 1.6 0.00 0.05 0.05 99 1018.5
20260902154428 17 70 0.0 0.0 0.00 0.05 0.05 99 1018.6
20260902153927 17 89 0.0 1.6 0.00 0.05 0.05 99 1018.3
20260902153426 17 87 1.6 1.6 0.00 0.05 0.05 99 1018.2
20260902152922 17 102 0.0 1.6 0.00 0.05 0.05 99 1018.4
20260902152418 17 102 0.0 0.0 0.00 0.05 0.05 99 1018.9
20260902151913 17 103 0.0 0.0 0.00 0.05 0.05 99 1018.5
20260902151409 16 112 1.6 1.6 0.00 0.05 0.05 99 1018.9
20260902150903 17 321 0.0 0.0 0.00 0.05 0.05 99 1019.0
20260902150359 16 162 1.6 3.2 0.00 0.05 0.05 99 1018.9
20260902145858 16 154 0.0 1.6 0.00 0.05 0.05 99 1018.6
20260902145353 17 159 1.6 1.6 0.00 0.05 0.05 99 1018.9
20260902144843 17 169 1.6 1.6 0.00 0.05 0.05 99 1018.5
20260902144339 16 80 0.0 1.6 0.00 0.05 0.05 99 1018.7
20260902143834 16 139 1.6 1.6 0.00 0.05 0.05 99 1018.9
20260902143334 16 126 0.0 0.0 0.00 0.05 0.05 99 1019.3
20260902142830 16 136 0.0 0.0 0.00 0.05 0.05 99 1019.2
20260902142326 16 137 0.0 0.0 0.00 0.05 0.05 99 1019.3
20260902141820 16 137 0.0 0.0 0.00 0.05 0.05 99 1019.4
20260902141316 16 131 0.0 0.0 0.00 0.05 0.05 99 1019.0
20260902140816 16 132 0.0 0.0 0.00 0.05 0.05 99 1018.9
20260902140311 16 136 0.0 0.0 0.00 0.05 0.05 99 1019.0
20260902135810 16 136 0.0 1.6 0.00 0.05 0.05 99 1018.7
20260902135307 16 143 1.6 1.6 0.00 0.05 0.05 99 1018.6
20260902134805 16 147 1.6 1.6 0.00 0.05 0.05 99 1018.7
20260902134301 16 189 1.6 3.2 0.00 0.05 0.05 99 1018.7
20260902133756 16 137 1.6 3.2 0.00 0.05 0.05 99 1018.4
20260902133255 16 52 1.6 1.6 0.00 0.05 0.05 99 1018.4
20260902132750 16 89 1.6 1.6 0.00 0.05 0.05 99 1018.4
20260902132246 16 87 0.0 1.6 0.00 0.05 0.05 99 1018.6
20260902131742 16 133 0.0 0.0 0.00 0.05 0.05 99 1018.7
20260902131238 16 132 0.0 0.0 0.00 0.05 0.05 99 1018.4
20260902130737 16 164 0.0 1.6 0.00 0.05 0.05 99 1018.4
20260902130233 16 164 0.0 1.6 0.00 0.05 0.05 99 1018.5
20260902125728 16 166 0.0 0.0 0.00 0.05 0.05 99 1018.5
20260902125225 16 86 0.0 0.0 0.00 0.05 0.05 99 1018.3
20260902124721 16 107 0.0 1.6 0.13 0.05 0.05 99 1018.1
20260902124215 16 109 0.0 1.6 0.13 0.05 0.05 99 1018.2
20260902123711 16 100 1.6 1.6 0.00 0.03 0.03 99 1018.2
20260902123207 16 132 0.0 0.0 0.00 0.03 0.03 99 1018.2
20260902122706 16 89 0.0 0.0 0.00 0.03 0.03 99 1018.2
20260902122202 16 95 1.6 1.6 0.00 0.03 0.03 99 1018.2
20260902121656 16 83 0.0 0.0 0.00 0.03 0.03 99 1018.2
20260902121151 16 105 1.6 1.6 0.00 0.03 0.03 99 1018.1
20260902120647 16 116 1.6 3.2 0.00 0.03 0.03 99 1017.9
20260902120143 16 199 3.2 4.8 0.00 0.03 0.03 99 1017.8
20260902115637 16 89 1.6 1.6 0.00 0.03 0.03 99 1017.8
20260902115133 16 171 0.0 0.0 0.00 0.03 0.03 99 1017.8
20260902114630 16 167 1.6 1.6 0.00 0.03 0.03 99 1017.6
20260902114130 16 103 1.6 3.2 0.00 0.03 0.03 99 1017.8
20260902113625 16 40 1.6 1.6 0.00 0.03 0.03 99 1017.8
20260902113120 16 64 0.0 0.0 0.00 0.03 0.03 99 1017.9
20260902112615 16 64 0.0 0.0 0.00 0.03 0.03 99 1018.0
20260902112112 16 64 0.0 0.0 0.00 0.03 0.03 99 1018.0
20260902111607 16 73 0.0 0.0 0.00 0.03 0.03 99 1017.8
20260902111102 16 73 1.6 1.6 0.00 0.03 0.03 99 1017.9
20260902110559 16 100 0.0 0.0 0.00 0.03 0.03 99 1018.0
20260902110054 16 100 0.0 1.6 0.00 0.03 0.03 99 1017.7
20260902105549 16 174 1.6 1.6 0.00 0.03 0.03 99 1017.6
20260902105049 16 189 1.6 1.6 0.00 0.03 0.03 99 1017.6
20260902104544 16 110 0.0 1.6 0.00 0.03 0.03 99 1017.4
20260902104039 16 98 0.0 0.0 0.00 0.03 0.03 99 1017.7
20260902103534 16 82 1.6 1.6 0.00 0.03 0.03 99 1017.6
20260902103030 16 93 1.6 1.6 0.00 0.03 0.03 99 1017.8
20260902102526 16 90 0.0 0.0 0.00 0.03 0.03 99 1017.7
20260902102023 16 90 0.0 0.0 0.00 0.03 0.03 99 1017.9
20260902101518 16 97 1.6 3.2 0.00 0.03 0.03 99 1017.8
20260902101016 16 113 0.0 0.0 0.00 0.03 0.03 99 1017.6
20260902100511 16 64 0.0 0.0 0.00 0.03 0.03 99 1017.6
20260902100006 16 105 1.6 1.6 0.00 0.03 0.03 99 1017.5
20260902095500 16 165 1.6 1.6 0.00 0.03 0.03 99 1017.5
20260902094959 16 87 0.0 1.6 0.00 0.03 0.03 99 1017.5
20260902094455 16 92 0.0 1.6 0.00 0.03 0.03 99 1017.6
20260902093950 16 92 1.6 1.6 0.00 0.03 0.03 99 1017.8
20260902093445 16 92 0.0 0.0 0.00 0.03 0.03 99 1017.8
20260902092944 16 115 0.0 1.6 0.00 0.03 0.03 99 1017.6
20260902092440 16 185 1.6 3.2 0.00 0.03 0.03 99 1017.7
20260902091939 16 126 0.0 0.0 0.00 0.03 0.03 99 1017.5
20260902091435 16 125 0.0 0.0 0.00 0.03 0.03 99 1017.5
20260902090931 16 146 1.6 1.6 0.00 0.03 0.03 99 1017.2
20260902090432 17 60 1.6 1.6 0.00 0.03 0.03 99 1017.3
20260902085930 17 95 0.0 1.6 0.00 0.03 0.03 99 1017.2
20260902085425 17 96 0.0 0.0 0.00 0.03 0.03 99 1017.1
20260902084921 17 96 0.0 1.6 0.00 0.03 0.03 99 1017.0
20260902084417 17 96 1.6 1.6 0.00 0.03 0.03 99 1016.9
20260902083912 17 90 1.6 1.6 0.00 0.03 0.03 99 1017.3
20260902083407 17 100 0.0 1.6 0.00 0.03 0.03 99 1017.3
20260902082902 17 94 0.0 0.0 0.00 0.03 0.03 99 1017.4
20260902082358 17 55 0.0 1.6 0.00 0.03 0.03 99 1017.3
20260902081854 17 72 0.0 0.0 0.00 0.03 0.03 99 1017.1
20260902081350 17 72 0.0 0.0 0.00 0.03 0.03 99 1017.1
20260902080845 17 72 0.0 0.0 0.00 0.03 0.03 99 1016.8
20260902080341 17 72 0.0 0.0 0.00 0.03 0.03 99 1016.7
20260902075840 17 73 0.0 0.0 0.00 0.03 0.03 99 1017.0
20260902075337 17 73 0.0 0.0 0.00 0.03 0.03 99 1016.9
20260902074832 17 73 0.0 0.0 0.00 0.03 0.03 99 1016.9
20260902074328 17 72 0.0 1.6 0.00 0.03 0.03 99 1017.1
20260902073828 17 58 0.0 1.6 0.00 0.03 0.03 99 1016.8
20260902073324 17 79 0.0 0.0 0.18 0.03 0.03 99 1016.8
20260902072820 17 79 0.0 1.6 0.18 0.03 0.03 99 1016.8
20260902072315 17 80 0.0 0.0 0.00 0.00 0.00 99 1016.8
20260902071812 17 80 0.0 0.0 0.00 0.00 0.00 99 1016.7
20260902071306 17 80 0.0 1.6 0.00 0.00 0.00 99 1016.9
20260902070803 17 80 0.0 1.6 0.00 0.00 0.00 99 1016.7
20260902070302 17 80 0.0 0.0 0.00 0.00 0.00 99 1016.9
20260902065800 17 80 1.6 1.6 0.00 0.00 0.00 99 1016.7
20260902065251 17 80 1.6 1.6 0.00 0.00 0.00 99 1016.6
20260902064747 17 78 0.0 1.6 0.00 0.00 0.00 99 1016.8
20260902064242 17 80 0.0 1.6 0.00 0.00 0.00 99 1016.6
20260902063737 17 70 1.6 1.6 0.00 0.00 0.00 99 1016.7
20260902063237 17 86 1.6 1.6 0.00 0.00 0.00 99 1016.6
20260902062732 17 86 3.2 3.2 0.00 0.00 0.00 99 1016.6
20260902062227 17 79 1.6 1.6 0.00 0.00 0.00 99 1016.8
20260902061725 18 80 1.6 1.6 0.00 0.00 0.00 99 1016.9
20260902061221 18 70 1.6 1.6 0.00 0.00 0.00 99 1016.7